International Skating Union - Official Site

Essent ISU World Cup Heerenveen
November 16-18, 2012

Draw | Lap Times | Index | World Cup

Referee: Dan  IMMERFALL  (USA)
Starter: Janny  SMEGEN  (NED)
StartTime: EndTime: Air Temp: Ice Temp: Humidity:
17:50 19:11
Result 5000m Men Division A
Rankings as of Nov 18 2012 5:50PM
Rank: No.: Name: Nation: Time: Behind: Points:
1 85 Sven  Kramer NED NED 6:16.09200m - 18.88 - (18.8)
600m - 48.44 - (29.5)
1000m - 1:18.50 - (30.0)
1400m - 1:48.60 - (30.1)
1800m - 2:18.51 - (29.9)
2200m - 2:48.30 - (29.7)
2600m - 3:18.20 - (29.9)
3000m - 3:48.36 - (30.1)
3400m - 4:18.17 - (29.8)
3800m - 4:48.10 - (29.9)
4200m - 5:17.31 - (29.2)
4600m - 5:46.68 - (29.3)
5000m - 6:16.09 - (29.4)
100
2 77 Jorrit  Bergsma NED NED 6:16.78200m - 19.31 - (19.3)
600m - 48.77 - (29.4)
1000m - 1:17.93 - (29.1)
1400m - 1:46.98 - (29.0)
1800m - 2:16.36 - (29.3)
2200m - 2:46.00 - (29.6)
2600m - 3:15.93 - (29.9)
3000m - 3:46.00 - (30.0)
3400m - 4:16.04 - (30.0)
3800m - 4:46.10 - (30.0)
4200m - 5:16.44 - (30.3)
4600m - 5:46.61 - (30.1)
5000m - 6:16.78 - (30.1)
0.69 80
3 79 Jan  Blokhuijsen NED NED 6:16.81200m - 18.33 - (18.3)
600m - 47.86 - (29.5)
1000m - 1:17.70 - (29.8)
1400m - 1:47.42 - (29.7)
1800m - 2:17.22 - (29.8)
2200m - 2:47.43 - (30.2)
2600m - 3:17.59 - (30.1)
3000m - 3:47.49 - (29.8)
3400m - 4:17.23 - (29.7)
3800m - 4:46.91 - (29.6)
4200m - 5:16.61 - (29.7)
4600m - 5:46.71 - (30.1)
5000m - 6:16.81 - (30.1)
0.72 70
4 83 Bob  de Jong NED NED 6:18.31200m - 19.85 - (19.8)
600m - 49.37 - (29.5)
1000m - 1:19.18 - (29.8)
1400m - 1:49.07 - (29.8)
1800m - 2:18.75 - (29.6)
2200m - 2:48.39 - (29.6)
2600m - 3:18.12 - (29.7)
3000m - 3:48.06 - (29.9)
3400m - 4:18.01 - (29.9)
3800m - 4:47.95 - (29.9)
4200m - 5:17.91 - (29.9)
4600m - 5:47.93 - (30.0)
5000m - 6:18.31 - (30.3)
2.22 60
5 127 Ivan  Skobrev RUS RUS 6:21.53200m - 18.92 - (18.9)
600m - 48.05 - (29.1)
1000m - 1:17.64 - (29.5)
1400m - 1:47.94 - (30.3)
1800m - 2:18.50 - (30.5)
2200m - 2:49.10 - (30.6)
2600m - 3:19.64 - (30.5)
3000m - 3:50.04 - (30.4)
3400m - 4:20.45 - (30.4)
3800m - 4:50.78 - (30.3)
4200m - 5:21.03 - (30.2)
4600m - 5:51.56 - (30.5)
5000m - 6:21.53 - (29.9)
5.44 50
6 78 Ted-Jan  Bloemen NED NED 6:22.47200m - 19.02 - (19.0)
600m - 48.84 - (29.8)
1000m - 1:18.97 - (30.1)
1400m - 1:48.97 - (30.0)
1800m - 2:19.31 - (30.3)
2200m - 2:49.43 - (30.1)
2600m - 3:19.94 - (30.5)
3000m - 3:50.35 - (30.4)
3400m - 4:20.52 - (30.1)
3800m - 4:51.01 - (30.4)
4200m - 5:21.60 - (30.5)
4600m - 5:51.93 - (30.3)
5000m - 6:22.47 - (30.5)
6.38 45
7 32 Alexis  Contin FRA FRA 6:23.55200m - 19.31 - (19.3)
600m - 48.69 - (29.3)
1000m - 1:18.63 - (29.9)
1400m - 1:48.40 - (29.7)
1800m - 2:18.54 - (30.1)
2200m - 2:48.64 - (30.1)
2600m - 3:18.89 - (30.2)
3000m - 3:49.61 - (30.7)
3400m - 4:20.35 - (30.7)
3800m - 4:50.38 - (30.0)
4200m - 5:21.15 - (30.7)
4600m - 5:52.00 - (30.8)
5000m - 6:23.55 - (31.5)
7.46 40
8 98 Håvard  Bøkko NOR NOR 6:26.30200m - 18.63 - (18.6)
600m - 48.25 - (29.6)
1000m - 1:18.89 - (30.6)
1400m - 1:49.10 - (30.2)
1800m - 2:19.31 - (30.2)
2200m - 2:49.89 - (30.5)
2600m - 3:20.63 - (30.7)
3000m - 3:51.19 - (30.5)
3400m - 4:21.91 - (30.7)
3800m - 4:52.86 - (30.9)
4200m - 5:24.01 - (31.1)
4600m - 5:55.03 - (31.0)
5000m - 6:26.30 - (31.2)
10.21 35
9 103 Sverre  Lunde Pedersen NOR NOR 6:26.57200m - 18.68 - (18.6)
600m - 48.60 - (29.9)
1000m - 1:19.37 - (30.7)
1400m - 1:49.91 - (30.5)
1800m - 2:20.47 - (30.5)
2200m - 2:51.08 - (30.6)
2600m - 3:21.74 - (30.6)
3000m - 3:52.35 - (30.6)
3400m - 4:23.02 - (30.6)
3800m - 4:53.59 - (30.5)
4200m - 5:24.18 - (30.5)
4600m - 5:55.04 - (30.8)
5000m - 6:26.57 - (31.5)
10.48 30
10 5 Bart  Swings BEL BEL 6:29.87200m - 19.77 - (19.7)
600m - 49.85 - (30.0)
1000m - 1:20.20 - (30.3)
1400m - 1:50.97 - (30.7)
1800m - 2:22.00 - (31.0)
2200m - 2:52.96 - (30.9)
2600m - 3:24.01 - (31.0)
3000m - 3:55.22 - (31.2)
3400m - 4:26.32 - (31.1)
3800m - 4:57.14 - (30.8)
4200m - 5:28.03 - (30.8)
4600m - 5:58.93 - (30.9)
5000m - 6:29.87 - (30.9)
13.78 25
11 35 Alexej  Baumgärtner GER GER 6:31.00200m - 19.59 - (19.6)
600m - 49.80 - (30.2)
1000m - 1:20.41 - (30.6)
1400m - 1:51.05 - (30.6)
1800m - 2:21.72 - (30.6)
2200m - 2:52.62 - (30.8)
2600m - 3:23.61 - (31.0)
3000m - 3:54.62 - (31.0)
3400m - 4:25.63 - (31.0)
3800m - 4:57.01 - (31.3)
4200m - 5:28.32 - (31.3)
4600m - 6:00.03 - (31.7)
5000m - 6:31.00 - (30.9)
14.91 21
12 44 Marco  Weber GER GER 6:31.79200m - 19.49 - (19.4)
600m - 50.03 - (30.5)
1000m - 1:21.05 - (31.0)
1400m - 1:51.80 - (30.7)
1800m - 2:22.95 - (31.1)
2200m - 2:53.87 - (30.9)
2600m - 3:24.96 - (31.0)
3000m - 3:56.27 - (31.3)
3400m - 4:27.48 - (31.2)
3800m - 4:58.56 - (31.0)
4200m - 5:29.78 - (31.2)
4600m - 6:01.01 - (31.2)
5000m - 6:31.79 - (30.7)
15.70 18
13 36 Patrick  Beckert GER GER 6:31.82200m - 19.79 - (19.7)
600m - 49.91 - (30.1)
1000m - 1:20.56 - (30.6)
1400m - 1:51.32 - (30.7)
1800m - 2:22.26 - (30.9)
2200m - 2:53.62 - (31.3)
2600m - 3:24.81 - (31.1)
3000m - 3:56.31 - (31.5)
3400m - 4:27.77 - (31.4)
3800m - 4:59.18 - (31.4)
4200m - 5:30.12 - (30.9)
4600m - 6:00.80 - (30.6)
5000m - 6:31.82 - (31.0)
15.73 16
14 106 Shane  Dobbin NZL NZL 6:36.38200m - 19.49 - (19.5)
600m - 49.93 - (30.4)
1000m - 1:20.71 - (30.7)
1400m - 1:51.86 - (31.1)
1800m - 2:23.00 - (31.1)
2200m - 2:54.14 - (31.1)
2600m - 3:25.64 - (31.5)
3000m - 3:57.01 - (31.3)
3400m - 4:28.25 - (31.2)
3800m - 4:59.81 - (31.5)
4200m - 5:31.75 - (31.9)
4600m - 6:03.99 - (32.2)
5000m - 6:36.38 - (32.4)
20.29 14
15 137 Emery  Lehman USA USA 6:38.94200m - 19.53 - (19.5)
600m - 50.26 - (30.7)
1000m - 1:20.61 - (30.3)
1400m - 1:50.64 - (30.0)
1800m - 2:21.27 - (30.6)
2200m - 2:52.35 - (31.0)
2600m - 3:23.48 - (31.1)
3000m - 3:54.76 - (31.2)
3400m - 4:26.53 - (31.7)
3800m - 4:59.00 - (32.4)
4200m - 5:32.03 - (33.0)
4600m - 6:05.11 - (33.0)
5000m - 6:38.94 - (33.8)
22.85 12
16 37 Moritz  Geisreiter GER GER 6:56.07200m - 19.12 - (19.1)
600m - 58.16 - (39.0)
1000m - 1:28.97 - (30.8)
1400m - 2:00.56 - (31.5)
1800m - 2:32.19 - (31.6)
2200m - 3:04.48 - (32.2)
2600m - 3:37.31 - (32.8)
3000m - 4:10.39 - (33.0)
3400m - 4:43.80 - (33.4)
3800m - 5:17.14 - (33.3)
4200m - 5:50.56 - (33.4)
4600m - 6:23.54 - (32.9)
5000m - 6:56.07 - (32.5)
39.98 10